This is the latest recevied weather packets stored in our database for station/object YU7IBS-1. If no packets are shown the sender has not sent any weather packets the latest 10 day(s).
| Time | Temp. | Humidity | Pressure | Rain* | Wind** | Luminosity | Snow |
|---|---|---|---|---|---|---|---|
| 1788136156 | 75° F | 49% | 748.9 mmHg | 0 in | - | - | - |
| 1788135556 | 76° F | 49% | 748.9 mmHg | 0 in | - | - | - |
| 1788134356 | 76° F | 49% | 748.9 mmHg | 0 in | - | - | - |
| 1788133756 | 76° F | 49% | 748.9 mmHg | 0 in | - | - | - |
| 1788133157 | 76° F | 49% | 748.9 mmHg | 0 in | - | - | - |
| 1788132558 | 76° F | 49% | 749.2 mmHg | 0 in | - | - | - |
| 1788131956 | 76° F | 49% | 749.3 mmHg | 0 in | - | - | - |
| 1788131356 | 76° F | 49% | 749.3 mmHg | 0 in | - | - | - |
| 1788130757 | 76° F | 49% | 749.3 mmHg | 0 in | - | - | - |
| 1788130158 | 76° F | 48% | 749.4 mmHg | 0 in | - | - | - |
| 1788129557 | 76° F | 49% | 749.7 mmHg | 0 in | - | - | - |
| 1788128956 | 76° F | 50% | 749.7 mmHg | 0 in | - | - | - |
| 1788128356 | 76° F | 49% | 749.5 mmHg | 0 in | - | - | - |
| 1788127756 | 76° F | 50% | 749.7 mmHg | 0 in | - | - | - |
| 1788127157 | 76° F | 50% | 749.7 mmHg | 0 in | - | - | - |
| 1788126556 | 76° F | 49% | 749.5 mmHg | 0 in | - | - | - |
| 1788125957 | 76° F | 50% | 749.4 mmHg | 0 in | - | - | - |
| 1788125357 | 76° F | 51% | 749.5 mmHg | 0 in | - | - | - |
| 1788124758 | 77° F | 49% | 749.5 mmHg | 0 in | - | - | - |
| 1788124158 | 77° F | 51% | 749.6 mmHg | 0 in | - | - | - |
| 1788123556 | 76° F | 50% | 749.5 mmHg | 0 in | - | - | - |
| 1788122957 | 77° F | 50% | 749.4 mmHg | 0 in | - | - | - |
| 1788122356 | 76° F | 53% | 749.3 mmHg | 0 in | - | - | - |
| 1788121758 | 76° F | 52% | 749.4 mmHg | 0 in | - | - | - |
| 1788121157 | 76° F | 53% | 749.5 mmHg | 0 in | - | - | - |
* Rain latest hour (hover to see other rain measurements)
** Current wind speed in m/s (hover to see current wind gust speed)